SCP
0 0 0 0 0 0 0 0 0 0 0 0 0 0 0 0 0 0 0 0 0 0 0 0 0 0 0 0 0 0 0 0 0 0 0 0 0 0 0 0 0 0 0
0 0 0 0 0 0 0 0 0 0 0 0 0 0 0 0 0 0 0 0 0 0 0 0 0 0 0 0 0 0 0 0 0 0 0 0 0 0 0 0 0 0 0
0 0 0 0 0 0 0 0 0 0 0 0 0 0 0 0 0 0 0 0 0 0 0 0 0 0 0 0 0 0 0 0 0 0 0 0 0 0 0 0 0 0 0
0 0 0 0 0 0 0 0 0 0 0 0 0 0 0 0 0 0 0 0 0 0 0 0 0 0 0 0 0 0 0 0 0 0 0 0 0 0 0 0 0 0 0
0 0 0 0 0 0 0 0 0 0 0 0 0 0 0 0 0 0 0 0 0 0 0 0 0 0 0 0 0 0 0 0 0 0 0 0 0 0 0 0 0 0 0
0 0 0 0 0 0 0 0 0 0 0 0 0 0 0 0 0 0 0 0 0 0 0 0 0 0 0 0 0 0 0 0 0 0 0 0 0 0 0 0 0 0 0
0 0 0 0 0 0 0 0 0 0 0 0 0 0 0 0 0 0 0 0 0 0 0 0 0 0 0 0 0 0 0 0 0 0 0 0 0 0 0 0 0 0 0
0 0 0 0 0 0 0 0 0 0 0 0 0 0 0 0 0 0 0 0 0 0 0 0 0 0 0 0 0 0 0 0 0 0 0 0 0 0 0 0 0 0 0
0 0 0 0 0 0 0 0 0 0 0 0 0 0 0 0 0 0 0 0 0 0 0 0 0 0 0 0 0 0 0 0 0 0 0 0 0 0 0 0 0 0 0
0 0 0 0 0 0 0 0 0 0 0 0 0 0 0 0 0 0 0 0 0 0 0 0 0 0 0 0 0 0 0 0 0 0 0 0 0 0 0 0 0 0 0
0 0 0 0 0 0 0 0 0 0 0 0 0 0 0 0 0 0 0 0 0 0 0 0 0 0 0 0 0 0 0 0 0 0 0 0 0 0 0 0 0 0 0
0 0 0 0 0 0 0 0 0 0 0 0 0 0 0 0 0 0 0 0 0 0 0 0 0 0 0 0 0 0 0 0 0 0 0 0 0 0 0 0 0 0 0
0 0 0 0 0 0 0 0 0 0 0 0 0 0 0 0 0 0 0 0 0 0 0 0 0 0 0 0 0 0 0 0 0 0 0 0 0 0 0 0 0 0 0
0 0 0 0 0 0 0 0 0 0 0 0 0 0 0 0 0 0 0 0 0 0 0 0 0 0 0 0 0 0 0 0 0 0 0 0 0 0 0 0 0 0 0
0 0 0 0 0 0 0 0 0 0 0 0 0 0 0 0 0 0 0 0 0 0 0 0 0 0 0 0 0 0 0 0 0 0 0 0 0 0 0 0 0 0 0
0 0 0 0 0 0 0 0 0 0 0 0 0 0 0 0 0 0 0 0 0 0 0 0 0 0 0 0 0 0 0 0 0 0 0 0 0 0 0 0 0 0 0
0 0 0 0 0 0 0 0 0 0 0 0 0 0 0 0 0 0 0 0 0 0 0 0 0 0 0 0 0 0 0 0 0 0 0 0 0 0 0 0 0 0 0
0 0 0 0 0 0 0 0 0 0 0 0 0 0 0 0 0 0 0 0 0 0 0 0 0 0 0 0 0 0 0 0 0 0 0 0 0 0 0 0 0 0 0
0 0 0 0 0 0 0 0 0 0 0 0 0 0 0 0 0 0 0 0 0 0 0 0 0 0 0 0 0 0 0 0 0 0 0 0 0 0 0 0 0 0 0
0 0 0 0 0 0 0 0 0 0 0 0 0 0 0 0 0 0 0 0 0 0 0 0 0 0 0 0 0 0 0 0 0 0 0 0 0 0 0 0 0 0 0
0 0 0 0 0 0 0 0 0 0 0 0 0 0 0 0 0 0 0 0 0 0 0 0 0 0 0 0 0 0 0 0 0 0 0 0 0 0 0 0 0 0 0
0 0 0 0 0 0 0 0 0 0 0 0 0 0 0 0 0 0 0 0 0 0 0 0 0 0 0 0 0 0 0 0 0 0 0 0 0 0 0 0 0 0 0
0 0 0 0 0 0 0 0 0 0 0 0 0 0 0 0 0 0 0 0 0 0 0 0 0 0 0 0 0 0 0 0 0 0 0 0 0 0 0 0 0 0 0
0 0 0 0 0 0 0 0 0 0 0 0 0 0 0 0 0 0 0 0 0 0 0 0 0 0 0 0 0 0 0 0 0 0 0 0 0 0 0 0 0 0 0
0 0 0 0 0 0 0 0 0 0 0 0 0 0 0 0 0 0 0 0 0 0 0 0 0 0 0 0 0 0 0 0 0 0 0 0 0 0 0 0 0 0 0
0 0 0 0 0 0 0 0 0 0 0 0 0 0 0 0 0 0 0 0 0 0 0 0 0 0 0 0 0 0 0 0 0 0 0 0 0 0 0 0 0 0 0
Wind_Speed
13 11 11 9 7 4 1 4 6 7 7 6 7 7 8 7 7 7 11 12 12 13 13 11 12 12 12 14 16 15 16 14 13 14 15 15 16 14 11 8 8 10 9
13 12 12 10 8 4 1 4 6 7 7 6 6 6 8 7 7 7 9 11 12 13 11 13 12 13 13 15 15 15 13 13 12 13 15 13 13 7 8 9 10 10 7
15 14 13 11 8 4 0 2 5 6 7 8 6 6 6 7 6 9 8 11 13 13 13 14 14 14 14 13 16 16 17 14 14 12 10 10 10 13 10 12 9 8 9
14 13 13 11 8 4 2 1 4 6 6 7 7 10 8 9 10 9 9 12 12 13 13 14 15 15 13 15 16 15 15 16 13 12 11 11 12 11 10 9 10 13 12
13 13 12 10 7 5 2 1 4 5 6 7 8 9 9 8 8 10 12 12 11 12 13 14 14 14 13 15 16 16 15 13 13 12 11 12 12 13 12 14 12 11 10
11 12 11 9 7 5 3 1 4 4 6 7 8 9 10 11 12 12 12 11 10 10 13 15 14 14 13 15 15 15 16 13 14 12 11 11 11 11 11 12 13 13 11
12 13 13 10 8 6 3 2 4 4 6 7 8 8 10 11 11 12 11 12 10 11 14 15 15 14 14 15 15 14 13 13 14 12 11 10 11 11 11 12 13 14 12
12 13 12 10 8 5 4 2 3 4 6 7 8 8 9 7 8 11 11 11 10 11 15 16 15 16 16 15 14 12 12 11 12 12 13 10 11 10 11 11 11 12 12
13 13 11 9 7 6 4 2 3 4 6 7 8 8 8 9 10 11 11 10 11 11 14 15 15 15 15 15 15 11 12 12 11 11 11 10 9 9 10 10 10 10 12
13 13 11 10 8 6 4 3 2 4 6 7 6 6 8 9 10 10 11 12 13 13 14 15 15 15 15 15 14 13 13 13 11 9 10 10 8 8 8 8 8 9 10
15 13 11 10 8 6 5 3 2 4 5 6 7 8 8 9 10 9 11 12 12 13 13 14 14 14 15 14 13 13 14 13 13 12 12 12 11 9 8 8 8 8 9
13 13 12 10 8 7 6 4 3 4 5 6 7 7 8 9 9 10 11 12 12 13 13 13 14 14 14 14 13 13 13 13 13 13 13 13 12 13 11 9 10 9 10
13 12 11 10 9 8 6 5 3 4 4 6 7 7 8 9 10 10 11 11 12 13 13 13 14 13 13 13 12 11 11 11 12 13 13 13 14 14 12 13 11 10 10
14 14 12 11 9 8 7 5 4 3 4 5 7 7 8 9 10 10 11 11 12 12 13 14 14 13 12 12 10 8 9 10 11 12 12 13 14 15 15 12 12 12 12
15 15 13 11 10 9 8 6 5 4 4 5 6 7 8 9 9 10 10 11 11 12 12 13 14 14 12 11 10 5 7 9 11 12 12 13 17 20 16 12 13 12 10
16 15 14 12 11 10 8 7 5 4 4 5 6 7 7 8 9 10 10 11 11 12 12 12 14 14 11 20 20 9 7 9 10 12 12 14 15 19 20 18 18 16 13
16 16 15 13 12 10 9 7 6 4 5 5 6 6 7 8 9 10 10 11 11 11 12 12 13 14 16 22 22 15 10 10 10 11 12 12 14 19 13 13 17 16 16
15 16 14 12 11 10 9 7 6 5 5 5 6 6 7 8 9 10 10 11 10 10 11 12 13 13 15 22 23 19 11 9 9 10 12 14 15 16 17 12 12 13 10
14 14 13 12 12 11 10 8 7 6 6 6 6 6 7 8 9 10 11 11 10 11 11 11 12 13 15 20 23 20 10 7 10 10 11 14 15 21 23 15 14 14 11
11 12 12 12 12 11 10 9 8 7 7 6 6 7 7 8 10 11 11 10 10 11 11 11 12 13 14 18 22 21 8 7 9 9 10 14 19 22 22 15 14 15 13
12 13 13 12 12 11 11 9 8 8 6 5 6 7 8 8 10 10 10 10 10 11 11 12 12 13 14 16 19 19 8 7 9 8 9 10 21 21 21 18 14 17 16
14 14 13 12 11 12 11 10 9 7 6 5 6 7 8 7 7 9 10 9 9 10 11 11 11 10 12 13 14 16 14 12 8 8 9 11 20 20 19 16 20 22 17
14 14 13 13 11 12 12 11 8 7 6 6 6 7 7 7 7 8 9 8 7 7 9 9 10 10 10 11 13 13 14 14 8 7 12 15 17 16 13 19 21 17 11
15 14 14 14 13 13 12 10 8 8 7 6 6 6 6 7 7 6 6 6 6 7 9 9 10 10 10 10 9 9 9 10 8 7 10 13 13 12 14 14 13 11 11
15 15 15 15 14 14 13 11 9 9 8 6 5 5 5 6 6 5 5 6 6 7 9 8 9 10 11 14 19 12 10 9 9 9 7 7 8 9 9 10 10 10 11
16 16 16 15 14 14 13 12 11 10 8 6 5 4 4 4 5 5 5 5 6 10 10 11 11 10 14 19 19 17 15 15 15 9 7 7 8 8 9 10 10 10 11
Wind_Direction
215 196 193 188 190 198 283 345 341 345 344 341 340 336 335 331 330 330 330 329 329 328 324 320 318 316 312 311 308 307 305 304 304 303 303 300 286 272 268 273 281 276 275
209 197 194 191 198 202 282 335 344 343 346 343 332 325 320 318 318 322 326 327 327 324 320 318 315 313 309 307 307 307 303 301 302 305 307 308 304 275 320 301 282 278 291
215 200 194 193 194 194 342 345 341 337 342 340 329 323 318 319 329 332 328 327 324 319 317 315 314 311 310 306 306 305 301 300 300 294 294 298 304 328 296 289 285 297 303
218 202 192 189 185 163 135 328 333 333 342 340 335 336 331 330 332 329 322 322 320 318 317 316 315 312 310 307 305 302 299 296 294 293 285 277 284 289 298 298 302 298 290
210 196 186 177 162 148 151 312 323 329 342 342 338 333 329 327 324 324 322 324 322 320 320 322 320 318 314 310 307 303 298 293 290 289 288 283 280 271 272 285 292 293 291
197 184 170 160 156 155 169 276 311 329 343 341 338 334 330 329 326 328 326 326 322 322 326 327 325 323 319 316 313 306 300 294 289 285 282 280 278 278 278 284 292 294 296
185 175 169 170 170 176 186 249 301 332 345 340 335 332 329 326 326 327 325 325 323 324 328 329 327 325 323 319 316 311 305 299 293 285 280 277 273 273 273 276 283 289 292
187 181 176 174 173 178 193 240 307 337 341 335 332 326 327 324 320 323 321 320 320 322 323 325 324 326 327 326 325 318 314 303 295 287 281 276 272 270 269 271 279 287 291
189 184 176 175 176 180 191 238 308 331 333 328 324 321 328 325 320 319 319 319 319 320 322 323 326 328 329 330 330 328 328 319 306 295 288 281 276 273 270 268 268 277 290
190 184 178 176 177 178 187 214 290 322 321 318 321 318 321 321 318 316 319 320 321 322 323 325 328 329 331 331 330 330 336 334 330 322 311 300 293 288 285 280 278 274 279
190 184 179 176 175 179 193 209 261 301 310 315 316 317 320 319 318 317 319 320 320 323 325 326 327 329 330 330 329 334 335 334 335 336 333 330 323 318 314 308 300 295 290
189 182 177 175 181 189 196 206 242 285 306 309 310 314 317 318 319 319 320 320 321 323 324 325 326 327 328 326 325 330 332 332 332 332 331 330 329 328 326 321 313 308 301
184 180 179 183 188 192 196 203 230 273 295 300 305 310 316 320 320 320 319 320 321 322 325 325 324 324 324 322 317 325 327 330 329 328 329 328 326 327 328 326 322 318 311
187 186 186 188 189 193 196 201 222 256 283 293 300 307 317 320 319 318 318 320 321 323 324 321 320 320 319 317 305 308 321 327 329 330 328 326 323 324 325 327 328 324 316
193 193 192 189 188 191 194 199 216 242 268 285 296 306 313 315 315 316 317 319 320 321 320 320 319 319 320 316 311 290 319 329 332 333 330 325 326 327 329 332 331 328 321
199 196 193 189 190 191 191 194 208 228 258 276 287 295 303 306 309 311 316 318 319 319 319 316 315 317 318 320 331 336 330 334 336 335 332 327 328 328 330 331 334 332 325
198 195 193 191 188 186 185 190 201 215 245 265 279 288 295 301 306 309 313 317 317 316 315 313 314 315 317 322 327 333 331 332 337 335 332 331 330 333 325 334 336 328 326
196 193 189 184 178 175 177 183 193 216 240 259 270 279 289 295 302 308 312 315 315 314 310 311 315 317 317 322 324 327 323 325 333 332 331 333 333 330 344 342 334 327 329
192 186 180 173 169 172 175 182 199 214 233 251 263 274 281 288 297 303 309 314 313 309 308 313 317 318 318 319 320 326 319 324 328 333 335 336 337 340 350 347 338 333 337
177 170 164 163 168 172 173 188 203 213 229 245 263 274 280 285 294 302 310 312 312 309 314 316 318 317 315 317 320 329 326 327 331 338 338 339 345 349 352 351 343 340 342
168 164 163 169 174 170 176 195 206 215 224 242 265 274 280 288 295 300 305 308 310 312 315 317 320 320 325 327 328 336 346 340 337 340 340 342 349 353 353 354 351 349 347
170 169 170 173 171 173 183 199 209 209 209 235 262 274 282 288 289 299 305 309 314 316 319 321 324 329 333 338 338 348 356 355 345 342 342 344 350 353 354 356 357 355 353
175 175 175 173 175 181 191 203 202 193 202 229 255 273 284 287 291 300 307 314 322 321 320 325 329 331 335 341 349 352 351 353 352 342 342 346 351 351 352 356 359 357 354
180 177 179 182 184 187 196 205 191 186 202 228 251 270 283 292 300 303 305 313 320 321 324 333 332 333 339 350 358 359 355 353 351 342 337 342 348 353 354 356 358 357 357
182 181 186 190 189 186 195 197 192 190 204 223 242 262 275 288 298 304 306 310 314 323 329 331 330 334 341 351 358 6 -0 358 356 344 338 343 347 352 355 356 358 358 357
183 185 191 192 189 186 192 192 190 192 199 213 230 251 272 288 299 306 306 297 305 325 335 337 337 335 342 348 355 2 1 359 359 353 348 348 347 349 351 352 354 357 359